"Pseudo-MPEC" for P11bcM1

Created 2021 Jan 17 19:07:26 UT using Find_Orb

Click here for an explanation of pseudo-MPECs

 
 Astrometry: 
     P11bcM1  C2020 12 24W\[j[%:^Gl_@4PQo-F8U7ApWS%,@Crx/YDj98N:Astrometry*g4F51
     P11bcM1  C2020 12 24s=ehKeZV!Q4T0ttSredacted;Gr-0,QTyC)9NJclickMGhlimWo'F51
     P11bcM1  C2020 12 243pX!$BPxOwK\-1ga01DI_IP`7BO^yxefHherexhLt$Jo),V:t=J_F51
     P11bcM1  C2020 12 24MD?#^0ygnR?3?ge-m`%q0fort!pPoDG@)=G'\%explanationel$F51

Station data:
(F51) Pan-STARRS 1, Haleakala  (N20.707235 W156.255910)  US/Hawaii.
   Observers N. Primak, A. Schultz, S. Watters, J. Thiel, T. Goggia. Measurer
   PS1 Science Consortium. 1.8-m Ritchey-Chrétien + CCD.

Orbital elements:  P11bcM1
   Perihelion 2020 Aug 31.409804 +/- 81.4636 TT =  9:50:07 (JD 2459092.909804)
Epoch 2020 Dec 25.0 TT = JDT 2459208.5   Earth MOID: 0.4717   Ma: 0.0699
M  62.64115393 +/- 37.924972        (J2000 ecliptic)          AutoNEOCP
n   0.54192445 +/- 0.33335          Peri.  114.43287 +/- 77.453032
a   1.48996779 +/- 0.612039         Node   275.80379 +/- 25.084936
e   0.0465521 +/- 0.28193           Incl.   24.95980 +/- 20.591647
P   1.82/664.29d           H 22.3   G  0.15   U 12.0  SR
q 1.42060661 +/- 0.479024    Q 1.55932898 +/- 30.1732
From 4 observations 2020 Dec. 24 (58.5 min); mean residual 0".06
Residuals in arcseconds: 
201224 F51  .01-  .06+    201224 F51  .10+  .02+    
201224 F51  .03-  .10-    201224 F51  .06-  .02+    

Ephemerides (geocentric):
Date (UTC) HH   RA              Dec         delta   r     elong  mag " sig PA
---- -- -- --  -------------   -----------  ------ ------ -----  --- ---- ---
2021 01 17 19  06 15 55.591   +05 39 41.94  .53632 1.4757 150.9 22.7  55d 165
2021 01 17 20  06 15 51.617   +05 38 30.99  .53653 1.4757 150.9 22.7  55d 165
2021 01 17 21  06 15 47.650   +05 37 20.13  .53674 1.4758 150.8 22.7  55d 165
2021 01 17 22  06 15 43.691   +05 36 09.36  .53695 1.4758 150.7 22.7  55d 165
2021 01 17 23  06 15 39.739   +05 34 58.69  .53716 1.4758 150.7 22.7  55d 165
2021 01 18 00  06 15 35.794   +05 33 48.11  .53738 1.4759 150.6 22.7  55d 165
2021 01 18 01  06 15 31.857   +05 32 37.62  .53759 1.4759 150.6 22.7  55d 165
2021 01 18 02  06 15 27.927   +05 31 27.23  .53780 1.4759 150.5 22.7  55d 165
2021 01 18 03  06 15 24.005   +05 30 16.92  .53801 1.4759 150.5 22.8  55d 165
2021 01 18 04  06 15 20.090   +05 29 06.71  .53823 1.4760 150.4 22.8  55d 165
2021 01 18 05  06 15 16.183   +05 27 56.60  .53844 1.4760 150.3 22.8  55d 165
2021 01 18 06  06 15 12.283   +05 26 46.57  .53866 1.4760 150.3 22.8  55d 165
2021 01 18 07  06 15 08.390   +05 25 36.64  .53887 1.4760 150.2 22.8  55d 165
2021 01 18 08  06 15 04.504   +05 24 26.80  .53909 1.4761 150.2 22.8  55d 165
2021 01 18 09  06 15 00.627   +05 23 17.06  .53930 1.4761 150.1 22.8  55d 165
2021 01 18 10  06 14 56.756   +05 22 07.41  .53952 1.4761 150.1 22.8  55d 165
2021 01 18 11  06 14 52.893   +05 20 57.85  .53973 1.4761 150.0 22.8  55d 165
2021 01 18 12  06 14 49.037   +05 19 48.38  .53995 1.4762 149.9 22.8  55d 165
2021 01 18 13  06 14 45.189   +05 18 39.01  .54017 1.4762 149.9 22.8  55d 165
2021 01 18 14  06 14 41.348   +05 17 29.73  .54038 1.4762 149.8 22.8  55d 165
2021 01 18 15  06 14 37.515   +05 16 20.54  .54060 1.4763 149.8 22.8  55d 165
2021 01 18 16  06 14 33.689   +05 15 11.45  .54082 1.4763 149.7 22.8  55d 165
2021 01 18 17  06 14 29.871   +05 14 02.44  .54104 1.4763 149.7 22.8  55d 165
2021 01 18 18  06 14 26.060   +05 12 53.54  .54125 1.4763 149.6 22.8  55d 165
2021 01 18 19  06 14 22.256   +05 11 44.72  .54147 1.4764 149.5 22.8  55d 165
2021 01 18 20  06 14 18.460   +05 10 36.00  .54169 1.4764 149.5 22.8  55d 165
2021 01 18 21  06 14 14.671   +05 09 27.37  .54191 1.4764 149.4 22.8  55d 165
2021 01 18 22  06 14 10.890   +05 08 18.83  .54213 1.4764 149.4 22.8  55d 165
2021 01 18 23  06 14 07.116   +05 07 10.39  .54235 1.4765 149.3 22.8  55d 165
2021 01 19 00  06 14 03.350   +05 06 02.04  .54257 1.4765 149.3 22.8  55d 165
2021 01 19 01  06 13 59.591   +05 04 53.78  .54279 1.4765 149.2 22.8  55d 165
2021 01 19 02  06 13 55.839   +05 03 45.61  .54301 1.4766 149.1 22.8  55d 165
2021 01 19 03  06 13 52.095   +05 02 37.54  .54324 1.4766 149.1 22.8  55d 165
2021 01 19 04  06 13 48.359   +05 01 29.56  .54346 1.4766 149.0 22.8  55d 165
2021 01 19 05  06 13 44.630   +05 00 21.68  .54368 1.4766 149.0 22.8  55d 165
2021 01 19 06  06 13 40.908   +04 59 13.88  .54390 1.4767 148.9 22.8  55d 165
2021 01 19 07  06 13 37.194   +04 58 06.18  .54412 1.4767 148.9 22.8  55d 165
2021 01 19 08  06 13 33.488   +04 56 58.58  .54435 1.4767 148.8 22.8  55d 165
2021 01 19 09  06 13 29.789   +04 55 51.06  .54457 1.4767 148.7 22.8  55d 165
2021 01 19 10  06 13 26.097   +04 54 43.64  .54479 1.4768 148.7 22.8  55d 165
2021 01 19 11  06 13 22.413   +04 53 36.31  .54502 1.4768 148.6 22.8  55d 165
2021 01 19 12  06 13 18.736   +04 52 29.08  .54524 1.4768 148.6 22.8  55d 165
2021 01 19 13  06 13 15.067   +04 51 21.94  .54547 1.4769 148.5 22.8  55d 165
2021 01 19 14  06 13 11.405   +04 50 14.89  .54569 1.4769 148.5 22.8  55d 165
2021 01 19 15  06 13 07.751   +04 49 07.93  .54592 1.4769 148.4 22.8  55d 165
2021 01 19 16  06 13 04.104   +04 48 01.07  .54614 1.4769 148.3 22.8  55d 165
2021 01 19 17  06 13 00.465   +04 46 54.30  .54637 1.4770 148.3 22.8  55d 165
2021 01 19 18  06 12 56.833   +04 45 47.62  .54660 1.4770 148.2 22.8  55d 165